Back to catalog

STARLINK-34203

AliveCommunicationsVLEO
NORAD 64246·PAYLOAD·🇺🇸 United States

Launched Jun 3, 2025 from Cape Canaveral Space Force Station

Loading…

Next Passes (next 24 hours)

TLE

FreshSource: CelesTrak SupGP

Epoch: Sep 14, 2026, 14:11 UTC

1 64246C 25119P   26257.59145833  .00028953  00000+0  10491-2 0  2570
2 64246  43.0017 320.1504 0001465 274.3699 330.0562 15.27550340    12

Track STARLINK-34203 in real time with AllMySat

Download on the App Store